Погода в Замартынье

Россия / Липецкая область     52°51′38″N   39°41′00″E
темп.,
°C
ветер,
м/с
пор.,
м/с
влажн.,
%
обл.,
%
осадки,
мм/ч
давл.,
гПа
погр.,
м
20 апреля, вт
вт2000:00+8в51083100 0.0 1018652
03:00+7в51084100 0.0 1018621
06:00+7в61088100 0.0 1017645
09:00+6в61088100 0.1 1016640
12:00+6в61086100 0.1 1016768
15:00+6в61088100 0.6 1014706
18:00+5в61390100 0.4 1011733
21:00+4всв61494100 7.8 1007764
21 апреля, ср
ср2100:00+5всв51096100 9.9 1002439
03:00+7ююв61495100 12.4 1001575
06:00+8ю71390100 0.6 1001863
09:00+5зюз5892100 1.5 1005555
12:00+6зюз6983100 0.0 1008765
15:00+7зюз5879100 0.1 1011911
18:00+8юз3779100 0.1 10121040
21:00+7ююз488962 0.2 1014387
22 апреля, чт
чт2200:00+6ююз379035 0.1 1015363
03:00+6юз388798 0.1 1016479
06:00+4зюз239413 0.0 101894
09:00+8ююз347232 0.0 1019695
12:00+12юз4755100 0.1 10191614
15:00+14юз575254 0.4 10191777
18:00+13ююз5865100 0.8 1019845
21:00+10ю388060 1.4 1020185
23 апреля, пт
пт2300:00+8ю368882 0.1 1019117
03:00+8ю398923 0.1 1019174
06:00+8ю39875 0.1 1020185
09:00+13ю586410 0.1 1020449
12:00+17ююз6841100 0.0 10182636
15:00+16ю674899 0.0 10172018
18:00+16ю595113 0.0 1016618
21:00+10ююв377686 0.5 1016146
24 апреля, сб
сб2400:00+9ююв411835 1.0 1015268
03:00+8ююв4108636 1.3 1013242
06:00+8ююв359085 0.0 1012135
09:00+11ююз5779100 0.2 1011839
12:00+4зсз6892100 2.1 1013467
15:00+7зсз4778100 4.3 1013958
18:00+8сз35685 0.4 1013902
21:00+5зсз11770 0.4 101310